Change the Weather History Date:

Sunday, March 10, 2013

  Actual Average (KGRB) Record (KGRB)
Temperature  
Mean Temperature 34 °F 28 °F  
Max Temperature 37 °F 36 °F 62 °F (1894)
Min Temperature 32 °F 20 °F -12 °F (1972)
Degree Days  
Heating Degree Days 30 37  
Month to date heating degree days 385  
Since 1 July heating degree days 6225  
Cooling Degree Days 0 0  
Month to date cooling degree days 0  
Year to date cooling degree days 0  
Moisture  
Dew Point 33 °F    
Average Humidity 92    
Maximum Humidity 100    
Minimum Humidity 81    
Precipitation  
Precipitation 0.32 in 0.06 in 0.87 in (1986)
Month to date precipitation 0.57  
Year to date precipitation 2.81  
Snow  
Snow 0.00 in 0.30 in 5.30 in (1956)
Month to date snowfall 3.4  
Since 1 July snowfall 43.6  
Snow Depth -    
Sea Level Pressure  
Sea Level Pressure 29.80 in    
Wind  
Wind Speed 5 mph (NE)    
Max Wind Speed 20 mph    
Max Gust Speed 29 mph    
Visibility 5 miles    
Events Fog , Rain , Snow    
T = Trace of Precipitation, MM = Missing Value Source: NWS Daily Summary

Daily Weather History Graph

Daily Weather History Graph

Search for Another Location

Airport or City:

Trip Planner

Search our weather history database for the weather conditions in past years. The results will help you decide how hot, cold, wet, or windy it might be!

Date:

Astronomy

Mar. 10, 2013 Rise Set
Actual Time 7:15 AM CDT 6:54 PM CDT
Civil Twilight 6:46 AM CDT 7:23 PM CDT
Nautical Twilight 6:12 AM CDT 7:57 PM CDT
Astronomical Twilight 5:38 AM CDT 8:31 PM CDT
Moon 6:16 AM CDT (3/10) 6:01 PM CDT (3/10)
Length of Visible Light 12h 37m
Length of Day
11h 38m
Waning Crescent, 2% of the Moon is Illuminated
Mar 10
Waning Crescent
Mar 11
New
Mar 19
First Quarter
Mar 27
Full
Apr 2
Last Quarter

Hourly Weather History & Observations

Time (CDT) Temp. Windchill Dew Point Humidity Pressure Visibility Wind Dir Wind Speed Gust Speed Precip Events Conditions
12:15 AM 35.6 °F - 33.8 °F 93% 29.80 in 1.2 mi Calm Calm - N/A   Light Drizzle
12:35 AM 35.6 °F - 33.8 °F 93% 29.79 in 1.2 mi Calm Calm - N/A   Overcast
12:55 AM 35.6 °F - 33.8 °F 93% 29.79 in 0.8 mi Calm Calm - N/A   Overcast
1:15 AM 33.8 °F - 32.0 °F 93% 29.79 in 0.2 mi Calm Calm - N/A Fog Fog
1:35 AM 35.6 °F - 33.8 °F 93% 29.79 in 0.2 mi Calm Calm - N/A Fog Fog
1:55 AM 35.6 °F - 33.8 °F 93% 29.78 in 0.5 mi Calm Calm - N/A Fog Fog
3:15 AM 35.6 °F - 33.8 °F 93% 29.78 in 0.2 mi Calm Calm - N/A Fog Fog
3:35 AM 33.8 °F - 33.8 °F 100% 29.77 in 0.2 mi Calm Calm - 0.02 in   Light Drizzle
3:55 AM 33.8 °F - 33.8 °F 100% 29.77 in 0.2 mi Calm Calm - 0.02 in Fog Fog
4:15 AM 33.8 °F - 33.8 °F 100% 29.77 in 0.2 mi Calm Calm - N/A Fog Fog
4:35 AM 35.6 °F - 33.8 °F 93% 29.77 in 0.5 mi Calm Calm - N/A Fog Fog
4:55 AM 35.6 °F - 33.8 °F 93% 29.77 in 0.2 mi Calm Calm - N/A Fog Fog
5:15 AM 33.8 °F - 32.0 °F 93% 29.76 in 0.2 mi Calm Calm - N/A Fog Fog
5:55 AM 33.8 °F - 32.0 °F 93% 29.77 in 0.2 mi Calm Calm - N/A Fog Fog
6:15 AM 33.8 °F - 32.0 °F 93% 29.77 in 0.2 mi Calm Calm - N/A Fog Fog
7:35 AM 33.8 °F 30.8 °F 33.8 °F 100% 29.75 in 0.2 mi North 3.5 mph - N/A Fog Fog
7:55 AM 33.8 °F - 33.8 °F 100% 29.76 in 0.2 mi Calm Calm - N/A Fog Fog
8:15 AM 35.6 °F - 33.8 °F 93% 29.78 in 0.2 mi Calm Calm - N/A Fog Fog
8:35 AM 35.6 °F - 33.8 °F 93% 29.79 in 0.5 mi Calm Calm - N/A Fog Fog
8:55 AM 33.8 °F - 33.8 °F 100% 29.78 in 0.2 mi Calm Calm - N/A Fog Fog
9:15 AM 35.6 °F - 33.8 °F 93% 29.80 in 0.5 mi Calm Calm - N/A   Drizzle
9:35 AM 33.8 °F 29.6 °F 33.8 °F 100% 29.81 in 0.2 mi North 4.6 mph - N/A   Drizzle
9:55 AM 35.6 °F - 33.8 °F 93% 29.84 in 1.0 mi Calm Calm - 0.02 in   Drizzle
10:15 AM 35.6 °F 32.8 °F 33.8 °F 93% 29.85 in 1.0 mi NNW 3.5 mph - 0.02 in Rain Rain
10:35 AM 35.6 °F 32.8 °F 35.6 °F 100% 29.86 in 2.0 mi North 3.5 mph - 0.06 in Rain Light Rain
10:55 AM 35.6 °F - 33.8 °F 93% 29.84 in 1.8 mi Calm Calm - 0.06 in   Light Drizzle
11:15 AM 35.6 °F - 35.6 °F 100% 29.84 in 1.8 mi Calm Calm - 0.02 in Rain Light Rain
11:35 AM 35.6 °F - 33.8 °F 93% 29.85 in 1.8 mi Calm Calm - 0.02 in   Overcast
11:55 AM 35.6 °F 28.6 °F 35.6 °F 100% 29.86 in 7.0 mi NNE 9.2 mph - 0.02 in   Overcast
12:15 PM 37.4 °F 29.8 °F 35.6 °F 93% 29.86 in 10.0 mi NNE 11.5 mph - N/A   Overcast
12:35 PM 37.4 °F 31.4 °F 35.6 °F 93% 29.86 in 10.0 mi NNE 8.1 mph - N/A   Overcast
12:55 PM 37.4 °F 30.3 °F 35.6 °F 93% 29.84 in 10.0 mi North 10.4 mph - N/A   Overcast
1:15 PM 37.4 °F 28.9 °F 35.6 °F 93% 29.81 in 10.0 mi NNE 13.8 mph - N/A   Overcast
1:35 PM 37.4 °F 29.3 °F 33.8 °F 87% 29.83 in 10.0 mi NNE 12.7 mph - N/A   Overcast
1:55 PM 37.4 °F 29.8 °F 33.8 °F 87% 29.85 in 10.0 mi NNE 11.5 mph - N/A   Overcast
2:15 PM 37.4 °F 29.3 °F 33.8 °F 87% 29.86 in 10.0 mi NNE 12.7 mph - N/A   Overcast
2:35 PM 37.4 °F 28.9 °F 33.8 °F 87% 29.85 in 10.0 mi NNE 13.8 mph - N/A   Overcast
2:55 PM 37.4 °F 28.9 °F 33.8 °F 87% 29.84 in 10.0 mi NNE 13.8 mph - N/A   Overcast
3:15 PM 37.4 °F 30.8 °F 32.0 °F 81% 29.84 in 10.0 mi NE 9.2 mph - N/A   Overcast
3:35 PM 37.4 °F 29.8 °F 32.0 °F 81% 29.82 in 10.0 mi NE 11.5 mph 16.1 mph N/A   Overcast
3:55 PM 37.4 °F 28.2 °F 32.0 °F 81% 29.82 in 10.0 mi NE 16.1 mph 20.7 mph N/A   Overcast
4:15 PM 37.4 °F 29.8 °F 32.0 °F 81% 29.83 in 10.0 mi NE 11.5 mph - N/A   Overcast
4:35 PM 37.4 °F 29.8 °F 32.0 °F 81% 29.81 in 10.0 mi NE 11.5 mph 19.6 mph N/A   Overcast
5:15 PM 37.4 °F 30.8 °F 32.0 °F 81% 29.84 in 10.0 mi ENE 9.2 mph - N/A   Overcast
5:35 PM 37.4 °F 30.3 °F 32.0 °F 81% 29.84 in 10.0 mi ENE 10.4 mph - N/A   Overcast
5:55 PM 37.4 °F 29.8 °F 32.0 °F 81% 29.83 in 10.0 mi NE 11.5 mph - N/A   Drizzle
6:15 PM 35.6 °F 28.0 °F 33.8 °F 93% 29.83 in 10.0 mi NE 10.4 mph - N/A Rain Rain
6:35 PM 35.6 °F 28.0 °F 33.8 °F 93% 29.82 in 7.0 mi NE 10.4 mph - 0.02 in Rain Light Rain
6:55 PM 35.6 °F 27.5 °F 33.8 °F 93% 29.83 in 7.0 mi NE 11.5 mph 18.4 mph 0.04 in Rain Light Rain
7:15 PM 35.6 °F 27.5 °F 33.8 °F 93% 29.83 in 7.0 mi ENE 11.5 mph 16.1 mph 0.02 in Rain Light Rain
7:35 PM 35.6 °F 27.1 °F 32.0 °F 87% 29.84 in 7.0 mi ENE 12.7 mph - 0.04 in Rain Light Rain
7:55 PM 33.8 °F 22.8 °F 32.0 °F 93% 29.82 in 5.0 mi ENE 18.4 mph 23.0 mph 0.06 in Rain Light Rain
8:15 PM 33.8 °F 22.5 °F 32.0 °F 93% 29.81 in 7.0 mi NE 19.6 mph 24.2 mph N/A Snow Light Snow
8:35 PM 33.8 °F 22.8 °F 32.0 °F 93% 29.80 in 7.0 mi NE 18.4 mph 24.2 mph 0.02 in Snow Light Snow
9:15 PM 33.8 °F 23.5 °F 32.0 °F 93% 29.78 in 7.0 mi NE 16.1 mph 24.2 mph N/A Rain Rain
9:35 PM 33.8 °F 23.2 °F 32.0 °F 93% 29.78 in 7.0 mi NE 17.3 mph 28.8 mph N/A   Drizzle
10:15 PM 32.0 °F 21.2 °F 32.0 °F 100% 29.75 in 2.5 mi NE 16.1 mph 25.3 mph 0.02 in Rain Light Rain
10:35 PM 33.8 °F 24.8 °F 32.0 °F 93% 29.74 in 4.0 mi NE 12.7 mph 18.4 mph 0.02 in Rain Light Rain
10:55 PM 32.0 °F 20.8 °F 32.0 °F 100% 29.72 in 5.0 mi NE 17.3 mph - 0.06 in Rain Light Rain
11:15 PM 33.8 °F 24.3 °F 32.0 °F 93% 29.71 in 7.0 mi NE 13.8 mph - 0.02 in Rain Light Rain
11:35 PM 33.8 °F 25.3 °F 32.0 °F 93% 29.70 in 10.0 mi NE 11.5 mph 16.1 mph 0.02 in Rain Rain
11:55 PM 33.8 °F 25.8 °F 32.0 °F 93% 29.70 in 10.0 mi NE 10.4 mph 16.1 mph 0.02 in Rain Light Rain
12:15 AM 33.8 °F 25.8 °F 32.0 °F 93% 29.70 in 3.0 mi NNE 10.4 mph - N/A Snow Light Snow
12:35 AM 32.0 °F 24.2 °F 32.0 °F 100% 29.70 in 1.5 mi NNE 9.2 mph - N/A Snow Light Snow
12:55 AM 32.0 °F 24.8 °F 32.0 °F 100% 29.69 in 5.0 mi NNE 8.1 mph - N/A Snow Light Snow